EWG59MG EDDS-LIEO

Flight info

Callsign EWG59MG
Flight time N/A
Altitude 37000
Route ROTWE5B ROTWE Y126 TUBLO N850 ODINA DCT BOTAL DCT KALMO DCT ELB Z254 BATOX
Aircraft A319/M-SDE3FGHIRWY/LB1

Departure

Time N/A
Airport Stuttgart Airport (EDDS)

Arrival

Time 2026-05-06 14:48
Airport Olbia Costa Smeralda Airport (LIEO)
Time Latitude Longitude Altitude Speed Heading
2026-05-06 14:29 41.49531 9.94229 21780 ft 422 kts 219°
2026-05-06 14:30 41.47223 9.91820 21214 ft 419 kts 218°
2026-05-06 14:30 41.44935 9.89429 20661 ft 417 kts 218°
2026-05-06 14:30 41.42660 9.87052 20124 ft 415 kts 218°
2026-05-06 14:30 41.40391 9.84681 19587 ft 413 kts 218°
2026-05-06 14:31 41.38134 9.82326 19036 ft 409 kts 218°
2026-05-06 14:31 41.35903 9.80007 18453 ft 406 kts 218°
2026-05-06 14:31 41.33674 9.77696 17805 ft 406 kts 217°
2026-05-06 14:31 41.31454 9.75393 17150 ft 404 kts 218°
2026-05-06 14:32 41.29246 9.73099 16501 ft 402 kts 218°
2026-05-06 14:32 41.27048 9.70812 15868 ft 400 kts 218°
2026-05-06 14:32 41.24868 9.68545 15254 ft 397 kts 219°
2026-05-06 14:32 41.22695 9.66286 14645 ft 395 kts 219°
2026-05-06 14:33 41.20544 9.64054 14050 ft 389 kts 219°
2026-05-06 14:33 41.18435 9.61870 13492 ft 380 kts 219°
2026-05-06 14:33 41.16401 9.59770 12992 ft 370 kts 219°
2026-05-06 14:33 41.14395 9.57704 12474 ft 360 kts 218°
2026-05-06 14:34 41.12453 9.55703 12195 ft 345 kts 218°
2026-05-06 14:34 41.10598 9.53793 11940 ft 331 kts 219°
2026-05-06 14:34 41.08810 9.51952 11685 ft 319 kts 218°
2026-05-06 14:34 41.07086 9.50177 11444 ft 309 kts 218°
2026-05-06 14:35 41.05411 9.48455 11198 ft 301 kts 218°
2026-05-06 14:35 41.03781 9.46778 11012 ft 291 kts 218°
2026-05-06 14:35 41.02216 9.45167 10971 ft 278 kts 219°
2026-05-06 14:35 41.00720 9.43627 10907 ft 267 kts 218°
2026-05-06 14:36 40.99276 9.42142 10784 ft 259 kts 219°
2026-05-06 14:36 40.98028 9.40482 10622 ft 251 kts 232°
2026-05-06 14:36 40.97037 9.38594 10421 ft 249 kts 235°
2026-05-06 14:36 40.96054 9.36709 10121 ft 249 kts 234°
2026-05-06 14:37 40.95066 9.34823 9772 ft 250 kts 234°
2026-05-06 14:37 40.94072 9.32931 9450 ft 250 kts 234°
2026-05-06 14:37 40.93083 9.31050 9178 ft 249 kts 234°
2026-05-06 14:37 40.92098 9.29182 8895 ft 247 kts 234°
2026-05-06 14:38 40.91114 9.27316 8594 ft 247 kts 234°
2026-05-06 14:38 40.90135 9.25462 8337 ft 245 kts 234°
2026-05-06 14:38 40.89160 9.23614 8056 ft 245 kts 234°
2026-05-06 14:38 40.88184 9.21766 7755 ft 245 kts 234°
2026-05-06 14:39 40.87213 9.19918 7452 ft 244 kts 234°
2026-05-06 14:39 40.86246 9.18076 7187 ft 243 kts 234°
2026-05-06 14:39 40.85285 9.16249 6994 ft 243 kts 234°
2026-05-06 14:39 40.84322 9.14414 6954 ft 243 kts 234°
2026-05-06 14:40 40.83345 9.12592 6957 ft 242 kts 233°
2026-05-06 14:40 40.82343 9.10793 6818 ft 245 kts 230°
2026-05-06 14:40 40.80976 9.09525 6578 ft 243 kts 199°
2026-05-06 14:40 40.79305 9.09388 6335 ft 245 kts 168°
2026-05-06 14:41 40.77775 9.10385 6079 ft 249 kts 146°
2026-05-06 14:41 40.76398 9.11783 5823 ft 250 kts 144°
2026-05-06 14:41 40.75163 9.13395 5562 ft 252 kts 124°
2026-05-06 14:41 40.74638 9.15558 5310 ft 255 kts 94°
2026-05-06 14:42 40.74758 9.17914 5060 ft 253 kts 84°
2026-05-06 14:42 40.74980 9.20204 4812 ft 251 kts 83°
2026-05-06 14:42 40.75216 9.22467 4565 ft 248 kts 83°
2026-05-06 14:42 40.75631 9.24631 4305 ft 247 kts 63°
2026-05-06 14:43 40.76582 9.26533 4079 ft 248 kts 54°
2026-05-06 14:43 40.77571 9.28376 3973 ft 245 kts 54°
2026-05-06 14:43 40.78523 9.30173 3985 ft 231 kts 54°
2026-05-06 14:43 40.79406 9.31850 3911 ft 216 kts 54°
2026-05-06 14:44 40.80250 9.33451 3668 ft 212 kts 54°
2026-05-06 14:44 40.81083 9.35033 3338 ft 208 kts 55°
2026-05-06 14:44 40.81904 9.36595 3042 ft 207 kts 56°
2026-05-06 14:45 40.83532 9.39699 2472 ft 202 kts 55°
2026-05-06 14:45 40.84325 9.41209 2100 ft 196 kts 55°
2026-05-06 14:45 40.85077 9.42641 1807 ft 183 kts 55°
2026-05-06 14:45 40.85760 9.43949 1552 ft 160 kts 56°
2026-05-06 14:46 40.86358 9.45070 1279 ft 141 kts 55°
2026-05-06 14:46 40.86891 9.46094 1055 ft 132 kts 55°
2026-05-06 14:46 40.87409 9.47078 885 ft 128 kts 55°
2026-05-06 14:46 40.87906 9.48023 666 ft 124 kts 56°
2026-05-06 14:47 40.88405 9.48962 473 ft 125 kts 59°
2026-05-06 14:47 40.88902 9.49921 286 ft 129 kts 56°
2026-05-06 14:47 40.89414 9.50895 63 ft 126 kts 58°
2026-05-06 14:47 40.89855 9.51741 33 ft 100 kts 55°
2026-05-06 14:48 40.90152 9.52309 34 ft 51 kts 55°
2026-05-06 14:48 40.90315 9.52620 34 ft 25 kts 54°
2026-05-06 14:48 40.90444 9.52658 34 ft 16 kts 304°
2026-05-06 14:48 40.90455 9.52523 34 ft 12 kts 264°
2026-05-06 14:49 40.90416 9.52420 34 ft 14 kts 235°
2026-05-06 14:49 40.90355 9.52309 34 ft 16 kts 237°
2026-05-06 14:49 40.90288 9.52177 34 ft 18 kts 235°
2026-05-06 14:49 40.90211 9.52030 34 ft 19 kts 235°
2026-05-06 14:50 40.90176 9.51912 34 ft 10 kts 278°
2026-05-06 14:50 40.90188 9.51839 32 ft 5 kts 284°
2026-05-06 14:50 40.90199 9.51811 34 ft 1 kts 308°
2026-05-06 14:50 40.90200 9.51810 34 ft 0 kts 309°
2026-05-06 14:53 40.90201 9.51809 34 ft 2 kts 312°
2026-05-06 14:53 40.90215 9.51762 34 ft 8 kts 259°
2026-05-06 14:54 40.90175 9.51671 34 ft 12 kts 236°
2026-05-06 14:54 40.90170 9.51601 34 ft 8 kts 324°
2026-05-06 14:54 40.90195 9.51580 34 ft 1 kts 326°
2026-05-06 14:54 40.90200 9.51575 34 ft 1 kts 326°
2026-05-06 14:55 40.90202 9.51573 34 ft 1 kts 325°
2026-05-06 14:55 40.90203 9.51572 34 ft 0 kts 324°